Change the Weather History Date:

Friday, September 27, 2013

  Actual Average Record
Temperature  
Mean Temperature 84 °F -  
Max Temperature 94 °F - - ()
Min Temperature 75 °F - - ()
Cooling Degree Days 20    
Growing Degree Days 34 (Base 50)    
Moisture  
Dew Point 64 °F    
Average Humidity 50    
Maximum Humidity 67    
Minimum Humidity 34    
Precipitation  
Precipitation 0.00 in - - ()
Sea Level Pressure  
Sea Level Pressure 29.72 in    
Wind  
Wind Speed 12 mph ()    
Max Wind Speed 22 mph    
Max Gust Speed 30 mph    
Visibility 6.2 miles    
Events      
T = Trace of Precipitation, MM = Missing Value Source: Averaged Metar Reports

Daily Weather History Graph

Daily Weather History Graph

Search for Another Location

Airport or City:

Trip Planner

Search our weather history database for the weather conditions in past years. The results will help you decide how hot, cold, wet, or windy it might be!

Date:

Astronomy

Sep. 27, 2013 Rise Set
Actual Time 5:25 AM AST 5:25 PM AST
Civil Twilight 5:02 AM AST 5:48 PM AST
Nautical Twilight 4:35 AM AST 6:15 PM AST
Astronomical Twilight 4:09 AM AST 6:41 PM AST
Moon 11:24 PM AST 12:14 PM AST
Length of Visible Light 12h 46m
Length of Day
12h 00m
Waning Gibbous, 48% of the Moon is Illuminated
Sep 27
Waning Gibbous
Oct 5
New
Oct 12
First Quarter
Oct 19
Full
Oct 27
Last Quarter

Hourly Weather History & Observations

Time (AST) Temp. Heat Index Dew Point Humidity Pressure Visibility Wind Dir Wind Speed Gust Speed Precip Events Conditions
12:55 AM 77.0 °F - 57.9 °F 52% 29.72 in 6.2 mi West 8.1 mph - N/A   Clear
1:55 AM 76.8 °F - 58.1 °F 52% 29.71 in 6.2 mi West 10.4 mph - N/A   Clear
2:55 AM 76.1 °F - 58.6 °F 55% 29.70 in 6.2 mi West 10.4 mph - N/A   Clear
3:55 AM 75.6 °F - 60.1 °F 59% 29.71 in 6.2 mi West 10.4 mph - N/A   Clear
4:55 AM 75.6 °F - 59.5 °F 57% 29.73 in 6.2 mi West 9.2 mph - N/A   Clear
5:55 AM 76.1 °F - 60.1 °F 57% 29.74 in 6.2 mi WNW 11.5 mph - N/A   Clear
6:55 AM 80.6 °F 81.6 °F 61.7 °F 52% 29.75 in 6.2 mi WNW 12.7 mph - N/A   Clear
7:55 AM 85.1 °F 85.7 °F 62.2 °F 46% 29.76 in 6.2 mi NW 19.6 mph - N/A   Clear
8:55 AM 89.4 °F 90.2 °F 63.1 °F 41% 29.77 in 6.2 mi NW 18.4 mph - N/A   Clear
9:55 AM 91.6 °F 93.1 °F 63.9 °F 40% 29.76 in 6.2 mi NNW 18.4 mph - N/A   Clear
10:55 AM 93.4 °F 93.9 °F 62.2 °F 35% 29.74 in 6.2 mi NNW 21.9 mph - N/A   Clear
11:55 AM 94.3 °F 95.3 °F 62.4 °F 35% 29.72 in 6.2 mi NNW 17.3 mph 25.3 mph N/A   Clear
12:55 PM 94.6 °F 95.5 °F 62.1 °F 34% 29.70 in 6.2 mi NNW 20.7 mph 29.9 mph N/A   Clear
1:55 PM 94.6 °F 95.9 °F 63.0 °F 35% 29.68 in 6.2 mi North 19.6 mph 24.2 mph N/A   Clear
2:55 PM 93.7 °F 95.8 °F 64.9 °F 38% 29.68 in 6.2 mi North 18.4 mph - N/A   Clear
3:55 PM 91.8 °F 95.1 °F 67.3 °F 44% 29.68 in 6.2 mi NNW 19.6 mph 26.5 mph N/A   Clear
4:55 PM 89.1 °F 93.3 °F 68.9 °F 51% 29.70 in 6.2 mi NNW 21.9 mph - N/A   Clear
5:55 PM 87.1 °F 90.6 °F 68.0 °F 53% 29.71 in 6.2 mi NNW 16.1 mph - N/A   Clear
6:55 PM 86.0 °F 89.4 °F 68.4 °F 55% 29.72 in 6.2 mi North 16.1 mph - N/A   Clear
7:55 PM 85.3 °F 88.8 °F 68.4 °F 57% 29.73 in 6.2 mi North 12.7 mph - N/A   Clear
8:55 PM 84.2 °F 87.9 °F 68.7 °F 60% 29.74 in 6.2 mi North 11.5 mph - N/A   Clear
9:55 PM 84.4 °F 88.2 °F 68.9 °F 60% 29.74 in 6.2 mi North 12.7 mph - N/A   Clear
10:55 PM 82.2 °F 86.0 °F 69.6 °F 66% 29.73 in 6.2 mi NNW 10.4 mph - N/A   Clear
11:55 PM 81.3 °F 84.6 °F 69.6 °F 67% 29.72 in 6.2 mi NNW 9.2 mph - N/A   Clear